GFSSW_sfc_dewp_222.txt.gz
Dewpoint
55 56 57 57 57 57 58 57 57 57 57 58 58 59 59 59 58 41 39 54 61 73 72 62 66 62 59 57 58 58 50 56 58 54 54 56 54 55 58 55 56 57 55 56 57
55 55 56 56 57 57 58 58 58 57 58 58 58 59 59 60 42 28 60 74 72 73 62 61 59 57 56 56 60 58 53 49 56 58 56 57 58 55 56 55 55 54 55 57 57
55 55 56 56 56 56 57 58 57 57 57 57 58 59 59 57 34 34 73 74 73 72 57 55 52 50 50 51 58 57 51 49 51 55 58 55 55 55 55 55 55 54 56 56 55
55 55 55 55 56 56 56 57 57 57 57 57 57 59 59 42 30 46 72 74 73 62 60 53 49 46 46 41 55 48 46 47 49 54 57 55 57 56 55 56 59 56 56 55 55
55 55 55 55 55 55 55 56 57 57 57 57 57 59 46 25 22 60 73 73 62 61 57 50 46 45 45 42 37 42 46 46 48 53 58 60 56 57 55 60 61 57 55 54 54
55 55 55 55 55 56 56 56 56 57 56 57 58 59 40 11 30 57 56 60 55 55 54 49 46 43 44 44 35 41 45 43 48 54 56 62 61 56 57 59 58 58 55 54 54
55 56 56 56 55 56 56 56 56 56 56 57 59 51 27 14 22 47 48 52 53 52 49 47 46 43 41 40 35 43 47 48 46 52 53 56 53 52 51 57 57 58 57 55 55
56 56 56 56 56 56 56 56 55 55 56 59 58 43 21 7 10 18 39 46 47 50 45 46 43 42 41 41 38 30 49 51 54 52 54 56 53 57 57 53 57 57 57 56 55
56 56 56 55 55 55 55 55 55 55 57 59 44 36 13 30 6 7 24 41 44 43 44 43 44 42 40 35 34 33 33 49 52 50 60 55 56 49 55 54 56 58 59 57 55
55 55 55 55 55 55 54 55 53 53 51 42 36 28 23 4 -2 -2 15 29 41 41 41 42 43 39 34 34 31 30 34 46 48 49 58 57 48 43 52 53 54 55 59 58 56
55 55 55 55 54 54 50 38 34 34 28 20 13 11 -4 8 3 -3 -6 18 37 35 38 40 37 34 33 33 33 31 37 42 46 48 52 55 56 52 58 53 55 55 57 58 57
55 54 54 54 53 53 48 36 26 24 22 21 16 9 12 4 7 3 -0 9 25 24 31 37 35 34 33 31 31 31 31 40 46 45 49 55 54 56 56 54 53 55 56 55 56
54 54 54 54 53 47 35 24 25 25 21 14 11 7 5 9 10 1 2 5 10 22 22 26 33 32 31 30 29 29 29 40 42 41 44 51 53 53 52 51 51 52 56 57 56
53 53 53 53 47 37 29 29 25 25 17 7 7 6 -1 0 0 3 -1 2 6 11 20 20 23 26 29 28 28 27 29 28 36 38 32 32 30 51 49 46 47 50 54 56 57
53 53 53 52 43 34 33 28 26 24 9 2 3 -0 -4 -5 -7 -6 -3 -0 5 6 13 18 19 21 26 27 28 27 28 28 28 30 30 30 28 37 44 47 46 47 52 54 57
52 52 52 47 46 37 32 29 27 16 5 2 4 3 -5 -6 -7 -9 -7 -2 3 7 8 11 15 18 22 27 27 28 27 29 32 30 26 28 28 36 38 44 45 47 50 53 56
51 51 50 42 36 34 31 28 17 9 6 2 3 4 3 -0 -3 -11 -5 -6 -6 3 8 6 7 12 18 22 26 26 26 26 30 28 24 26 26 34 39 38 38 47 48 51 56
51 50 48 40 35 31 32 25 18 9 4 1 4 4 1 1 1 -4 -2 -1 -6 -4 1 5 4 7 15 20 24 26 26 26 29 28 24 27 26 28 39 38 41 45 47 49 50
50 44 41 39 30 30 30 22 16 12 11 10 6 6 4 3 1 1 -0 -3 -1 -5 4 2 6 6 10 16 21 24 27 25 25 28 23 23 26 28 35 33 33 40 47 49 49
47 42 33 31 30 29 24 25 19 15 13 12 11 9 7 2 1 3 7 2 -1 -5 -5 3 6 5 6 11 17 20 26 23 26 28 28 25 33 31 39 35 34 33 35 41 41
46 38 33 31 29 28 22 18 16 14 13 13 13 10 8 7 5 5 6 8 4 1 -3 -9 -1 6 8 10 13 17 21 25 23 25 26 26 28 36 42 39 35 34 39 40 42
42 32 35 33 26 27 23 22 29 18 17 14 14 14 15 10 11 14 12 21 13 13 9 3 2 5 7 9 9 14 21 23 27 32 24 26 23 36 38 37 35 35 41 39 39
41 31 33 30 25 23 34 27 20 19 18 15 15 13 14 13 15 15 24 23 21 18 19 18 8 12 15 11 10 12 17 20 24 28 33 27 23 35 39 37 38 36 38 47 46
41 30 30 29 28 26 25 24 20 26 22 19 18 18 15 15 16 17 27 23 20 21 47 37 21 14 8 16 10 14 11 16 15 21 29 23 25 40 35 35 34 38 44 46 51
39 29 30 27 26 28 26 25 23 27 32 31 20 18 17 17 16 15 18 22 17 30 24 25 23 17 7 7 9 9 9 10 14 16 18 21 21 28 36 41 40 43 48 52 56
33 32 30 30 29 28 32 32 32 31 33 36 32 32 20 18 24 25 17 19 19 19 21 16 20 21 15 7 8 17 10 10 10 12 15 17 18 49 48 38 38 49 49 55 59
37 37 35 34 26 28 31 30 30 31 32 35 38 35 31 31 29 26 22 20 22 22 21 21 19 26 23 18 11 15 15 12 12 12 15 18 47 53 53 53 59 60 60 59 60

GFSSW_sfc_dewp_225.txt.gz
Dewpoint
55 55 56 57 57 57 57 58 58 58 57 57 58 59 59 60 58 45 42 52 65 74 72 63 64 65 65 62 65 64 59 56 55 56 55 56 53 54 58 55 56 57 57 57 57
56 55 56 56 56 57 58 58 58 58 57 58 58 59 59 60 48 32 51 72 73 74 63 60 62 64 62 60 60 58 53 54 61 63 60 56 54 56 57 57 55 55 57 57 57
55 55 56 56 56 56 57 57 57 57 58 57 58 59 59 59 41 39 74 74 71 73 59 61 62 56 53 58 57 55 53 53 57 61 61 60 57 56 57 57 54 55 55 56 56
55 56 56 56 56 56 56 56 57 57 57 57 57 59 59 52 28 49 75 74 73 68 57 55 57 50 46 51 56 52 52 49 55 59 59 61 60 58 57 60 55 56 56 55 55
55 55 55 56 56 56 56 56 56 57 57 57 57 59 52 35 19 59 74 73 68 64 55 56 55 47 45 42 52 52 46 47 55 59 59 63 63 59 59 60 56 56 56 55 54
56 56 56 55 56 56 56 57 57 56 56 57 57 60 51 18 15 63 61 64 57 58 55 53 52 48 42 42 42 45 45 45 56 57 55 60 62 62 60 59 55 55 55 55 53
56 56 56 56 55 56 56 56 56 56 56 57 57 53 37 22 18 46 57 57 56 53 51 51 51 46 43 41 42 45 43 51 55 58 57 60 57 60 61 59 55 54 54 54 54
55 56 56 56 56 56 56 56 55 55 56 57 60 48 34 16 15 14 11 48 51 51 51 50 46 43 43 41 39 38 48 46 51 58 60 59 55 60 64 62 57 55 54 54 55
55 55 55 55 56 55 55 55 55 56 57 58 52 47 27 31 23 12 10 15 44 45 48 47 43 42 42 39 37 35 42 51 53 54 59 56 56 55 52 57 57 57 56 54 54
55 55 55 55 55 55 54 55 54 54 51 42 40 32 30 26 8 7 8 15 29 42 42 41 41 41 42 39 32 33 48 49 50 53 57 55 56 55 54 54 57 57 57 55 54
55 54 54 54 54 54 52 42 39 38 32 29 26 27 13 8 14 2 1 9 24 29 38 39 38 39 39 36 34 33 33 46 49 55 54 54 53 52 55 53 56 58 57 57 54
54 54 54 54 53 53 51 39 27 24 23 24 26 26 21 17 5 1 0 -1 8 19 38 37 36 38 38 35 33 32 32 43 48 51 51 53 50 50 51 55 59 61 58 58 55
54 54 53 53 53 51 40 33 25 24 23 21 18 15 18 11 7 7 3 3 1 18 30 26 32 37 36 34 31 30 29 43 44 50 51 53 51 52 52 56 62 61 58 58 56
54 53 53 52 47 40 35 31 24 25 21 15 12 12 12 7 6 10 9 5 5 7 24 24 24 31 33 32 31 28 29 37 38 40 41 50 45 51 52 54 61 59 57 56 56
53 53 52 51 46 40 35 31 27 26 15 10 6 8 6 6 4 4 6 3 1 4 8 15 22 20 21 28 30 28 29 29 39 37 35 46 42 46 51 51 55 60 59 57 56
53 53 52 47 48 45 43 30 29 22 14 5 5 -2 -3 -1 -2 -2 -3 -2 2 1 5 5 14 18 19 22 24 28 27 27 32 35 28 34 39 40 49 50 51 56 56 56 56
52 51 50 46 38 37 33 32 23 16 13 4 4 3 3 -3 -6 -5 -4 -4 -2 0 3 8 7 7 14 16 19 23 25 25 29 30 31 31 28 41 48 49 51 51 54 56 57
51 51 50 45 41 38 32 31 23 15 9 8 10 4 4 4 -2 -4 -4 -4 -3 -3 3 4 4 6 8 12 16 20 24 24 28 29 31 31 27 38 42 47 51 51 51 55 56
51 47 46 42 41 37 33 27 23 20 16 12 11 8 9 5 5 3 1 -6 -3 -7 -6 -2 4 9 5 6 13 15 20 26 24 30 29 29 28 39 39 47 50 55 59 55 57
48 45 43 41 36 33 30 28 24 23 16 14 14 15 11 9 6 3 6 -1 -4 0 -4 -6 -6 3 6 6 6 14 21 22 26 23 25 27 32 33 39 36 45 50 51 53 55
48 44 35 31 32 34 27 24 26 21 16 15 14 14 14 14 15 12 8 7 11 -1 -1 -6 -4 -5 4 4 6 8 13 21 26 27 24 26 28 35 38 36 37 45 47 50 51
45 41 38 37 33 32 29 32 34 27 21 19 17 16 14 14 16 14 14 22 21 20 7 17 -6 -2 -5 1 10 8 12 20 26 27 30 29 28 36 33 35 36 37 40 46 46
44 43 42 33 30 27 32 30 30 22 23 21 21 22 18 16 17 17 25 23 24 23 32 30 16 -2 8 6 2 9 7 13 24 27 27 28 29 35 37 35 41 44 48 51 55
44 38 38 37 39 30 27 25 22 29 29 32 32 31 26 26 21 21 20 20 21 21 50 36 20 21 13 15 18 19 12 8 17 24 25 28 31 34 34 35 39 44 49 60 62
45 34 34 28 30 29 32 32 30 31 32 34 35 35 34 31 28 24 23 25 22 38 26 24 24 25 20 16 13 10 8 9 15 20 25 26 35 47 40 36 45 51 59 61 62
38 37 36 35 33 30 32 30 28 28 30 31 36 37 37 35 34 32 30 26 26 23 22 19 24 28 22 19 16 10 6 17 9 17 18 25 50 51 54 59 59 59 59 60 61
43 40 40 37 32 30 30 29 28 29 30 30 33 37 39 39 39 37 35 31 29 28 24 21 23 24 20 26 18 16 15 19 15 40 42 42 51 52 56 59 60 60 61 61 61

GFSSW_sfc_dewp_228.txt.gz
Dewpoint
56 56 56 56 57 57 57 57 57 57 57 57 58 59 59 60 59 51 36 48 65 74 72 69 67 66 67 66 67 66 59 57 56 57 57 55 54 58 58 57 57 57 57 58 62
56 56 56 56 56 57 57 57 57 57 57 57 58 59 59 60 53 39 49 72 73 74 64 60 60 65 65 65 64 60 56 55 59 58 60 61 57 56 56 56 56 57 58 57 61
56 56 56 56 56 56 57 57 57 57 57 57 58 59 59 59 41 32 73 73 74 74 63 60 61 63 63 61 59 55 52 55 58 56 62 62 60 61 56 55 55 56 56 56 57
56 56 56 56 56 57 57 57 57 57 57 57 57 58 59 55 22 49 74 74 73 70 63 55 57 57 51 54 57 52 53 54 56 60 63 64 64 61 61 57 57 57 56 56 57
56 56 56 56 56 56 56 57 57 57 57 57 57 58 50 36 16 54 74 73 68 66 60 55 55 56 50 45 54 52 50 55 58 60 62 64 63 63 61 58 57 56 56 55 56
55 55 55 56 56 56 56 56 57 56 56 57 57 59 47 7 12 58 65 68 63 61 56 55 53 53 49 43 48 55 56 55 57 59 60 62 62 63 63 62 58 56 55 55 56
55 56 56 55 55 55 56 55 55 56 56 56 57 54 44 19 26 44 60 58 58 58 53 53 53 51 48 42 42 53 55 58 58 58 59 59 57 60 63 64 57 55 55 54 55
54 55 55 55 55 55 55 55 55 55 56 57 59 51 34 30 26 22 17 14 42 55 54 52 51 48 42 42 40 45 50 50 57 58 58 58 54 60 64 65 60 55 55 54 54
54 55 55 55 55 55 55 55 55 56 57 56 50 45 20 38 29 23 13 8 19 52 51 50 49 44 42 40 38 37 39 51 53 56 57 55 56 58 63 63 61 55 54 54 55
55 55 55 55 55 54 54 54 54 54 53 49 42 34 28 22 22 13 11 11 13 35 44 43 41 40 41 40 37 39 47 50 50 55 55 54 53 58 60 59 58 58 54 54 53
55 55 54 54 54 53 51 44 26 27 30 28 21 31 24 22 21 10 8 7 20 29 30 41 38 37 39 41 40 37 35 45 50 56 53 53 52 51 55 55 55 60 58 54 52
55 54 54 54 53 53 50 37 34 23 21 24 28 28 27 24 22 18 5 2 7 16 25 36 37 38 40 40 38 36 37 46 52 55 50 53 51 51 51 55 55 59 61 56 53
54 54 54 53 52 49 41 35 36 35 23 22 22 20 21 24 22 17 3 0 2 5 17 31 35 38 38 38 37 35 31 45 48 53 51 51 49 51 52 55 60 60 61 61 53
54 54 53 52 42 43 38 35 34 25 19 19 17 17 16 16 10 11 9 5 3 -3 8 26 31 28 34 36 36 32 33 38 49 48 44 48 39 49 51 51 55 59 60 57 58
54 53 53 52 45 42 36 42 39 24 1 12 11 14 12 12 8 6 12 7 2 4 15 17 24 23 23 33 34 33 33 33 48 46 43 49 43 42 51 50 51 53 59 57 58
53 53 52 48 46 46 45 39 28 17 9 13 3 6 7 10 10 8 4 4 4 3 4 7 13 21 22 22 22 23 26 31 38 38 33 35 41 39 50 46 48 51 54 58 59
53 52 51 48 36 38 38 31 20 17 16 11 7 6 -3 -3 5 6 4 -4 -3 -6 -2 5 5 5 11 17 16 22 23 23 30 34 31 32 40 36 47 48 50 52 52 55 59
52 51 50 48 47 42 33 27 21 20 15 19 13 12 0 1 -3 -4 -3 -4 -1 -0 2 1 -1 7 10 7 11 16 20 23 23 31 32 32 31 33 39 46 51 52 53 57 59
51 47 46 45 47 40 30 26 23 22 23 19 13 13 12 10 9 2 -4 -5 -4 -4 -5 -5 0 8 7 7 9 10 17 24 25 34 28 30 30 40 47 47 49 53 54 57 58
46 45 44 43 41 32 26 28 23 24 26 15 13 14 12 13 13 14 10 4 -3 -4 -6 -6 -8 -6 3 6 7 6 14 19 22 23 27 28 30 37 42 46 50 50 52 55 57
46 42 41 41 33 29 25 25 25 29 26 17 15 14 13 12 13 14 13 15 17 7 -5 -9 -8 -10 -2 1 3 7 6 24 22 26 24 24 26 35 39 40 47 51 54 55 59
45 39 40 33 28 29 26 31 35 27 28 25 23 24 26 19 13 13 14 23 24 25 22 -4 -8 -9 -10 -4 5 7 6 10 15 20 28 26 26 32 36 42 46 55 58 61 62
42 44 47 32 27 25 26 26 28 31 32 33 33 32 35 24 23 20 17 22 22 25 23 30 10 -7 -8 -8 1 -2 4 14 24 27 25 25 27 38 39 44 55 58 62 65 66
43 33 32 34 33 29 30 30 28 32 31 35 37 37 35 32 32 26 29 27 28 21 51 35 20 -1 -4 -4 12 17 14 13 11 21 25 27 28 38 41 42 49 60 61 62 63
41 33 33 28 31 29 30 29 27 28 30 36 35 36 37 34 34 34 34 34 29 33 24 21 20 26 21 20 18 17 15 11 9 12 19 24 31 49 42 52 58 60 61 62 62
35 35 37 35 33 29 31 28 28 31 29 30 31 32 37 35 36 35 36 35 33 29 20 18 17 31 17 20 20 17 32 21 22 19 44 47 54 57 59 60 60 61 60 60 61
44 40 39 38 31 30 29 28 31 32 32 32 32 36 36 38 39 38 38 36 35 34 28 19 21 21 18 26 22 25 45 45 50 51 45 48 55 58 59 60 60 60 60 59 60

GFSSW_sfc_dewp_234.txt.gz
Dewpoint
57 57 57 57 57 57 57 58 58 58 58 58 58 58 59 60 59 54 25 42 69 75 74 67 66 67 68 66 67 65 58 54 54 56 59 61 58 59 58 57 58 59 62 65 69
56 56 56 56 56 57 57 57 57 58 58 58 58 59 59 59 52 35 54 69 74 74 67 64 64 66 64 65 66 62 55 53 58 60 60 61 61 61 56 56 60 63 66 67 67
56 56 56 56 56 56 56 56 57 57 57 57 58 58 59 59 28 24 69 74 74 71 65 63 64 64 63 65 64 61 53 55 58 60 62 61 61 61 56 56 58 62 65 66 66
55 54 55 56 56 56 56 56 56 56 56 57 57 58 59 50 26 50 74 74 74 67 62 61 63 63 62 60 62 55 55 56 58 62 62 62 63 62 63 63 61 64 66 66 66
54 55 55 55 56 56 56 56 56 56 56 56 57 58 42 15 7 69 74 74 72 66 58 58 62 60 55 53 57 55 55 58 61 61 62 62 62 62 62 63 60 64 65 65 65
55 55 55 55 55 56 56 56 56 55 56 56 57 57 40 -12 2 63 70 70 67 63 58 54 54 57 54 50 54 58 58 60 62 62 60 59 61 61 63 64 61 63 63 64 64
56 56 56 55 55 55 55 56 55 55 56 56 56 54 36 -7 44 31 51 61 65 62 52 55 52 49 50 55 58 58 56 58 60 61 60 61 58 59 63 63 58 61 62 62 62
56 56 55 55 55 55 55 55 55 56 56 56 56 50 15 17 31 31 22 18 54 60 53 50 53 50 48 56 55 52 52 51 57 59 60 58 53 60 63 63 59 56 58 59 58
56 55 55 55 55 55 55 54 55 55 56 58 49 35 12 34 28 27 16 7 14 36 52 44 51 48 43 49 38 41 46 49 53 58 59 58 53 61 63 63 60 55 56 56 56
55 55 55 55 54 54 54 54 53 56 55 53 45 26 17 19 24 21 21 10 8 24 46 47 44 40 41 39 36 42 48 49 50 55 57 56 54 58 62 63 61 56 55 55 56
55 55 54 54 54 54 51 36 32 27 37 25 20 14 19 20 25 21 16 11 11 18 32 41 40 38 38 40 40 40 38 37 50 56 52 52 52 57 61 63 61 60 55 54 54
54 54 54 54 54 54 47 35 36 35 29 30 27 24 24 27 22 21 12 3 9 14 25 28 37 40 39 40 40 39 38 38 53 55 49 51 51 54 59 61 59 58 58 55 54
54 54 54 54 53 44 41 35 39 35 25 21 22 23 23 26 22 20 12 6 9 11 22 21 28 35 39 39 38 37 37 37 42 53 51 50 47 50 53 58 58 57 57 59 55
54 54 53 52 40 44 37 40 40 33 12 10 13 17 21 24 19 24 7 3 5 9 22 23 28 35 37 37 37 36 36 36 51 46 40 47 36 46 50 52 54 54 55 56 55
54 54 52 51 45 38 36 42 36 20 0 6 13 17 16 17 9 15 14 5 -0 6 11 15 24 28 33 36 37 36 36 35 47 45 45 46 42 41 48 49 50 53 54 56 57
53 53 52 47 44 44 43 40 23 7 3 13 18 20 11 13 11 4 8 6 6 3 6 14 16 27 26 31 37 31 23 32 40 41 38 39 40 35 48 46 49 52 54 58 58
53 52 50 48 32 43 39 24 8 5 14 21 22 22 12 3 10 9 4 3 3 0 5 2 5 7 25 27 22 22 19 18 28 35 35 39 42 35 42 49 47 49 53 56 60
51 51 50 49 47 44 29 15 8 15 20 23 24 17 12 12 13 6 4 0 -2 1 -0 -2 -4 2 7 21 22 20 19 18 18 31 31 39 36 35 41 43 47 48 50 55 59
50 45 44 44 49 39 24 14 17 23 24 24 21 12 13 16 13 11 3 0 -1 -2 -5 -2 -2 1 6 7 15 14 17 20 19 28 26 29 32 32 35 42 46 49 52 56 57
45 43 39 44 45 29 24 27 24 26 32 26 19 16 17 18 16 12 13 15 18 -2 -2 -3 -1 -1 4 7 10 13 15 13 18 14 20 21 30 29 35 41 50 49 51 56 58
45 32 39 40 33 28 24 26 28 31 33 30 30 27 27 23 24 13 12 17 28 23 -2 -5 2 -6 -4 -1 2 7 9 17 19 18 16 17 20 32 36 42 50 53 53 53 58
43 34 42 33 28 28 25 27 33 31 34 36 36 34 33 29 26 24 20 17 32 32 17 7 -7 -7 -9 -3 2 7 6 12 11 10 25 22 20 31 38 40 51 54 57 58 59
42 41 43 30 24 25 30 28 29 30 31 36 33 36 36 32 26 28 30 31 34 32 36 12 -4 -10 -10 -8 -1 0 7 10 14 14 25 24 24 46 52 54 58 61 62 62 62
37 29 34 34 30 30 30 27 28 31 31 34 32 34 34 34 35 32 33 35 35 35 42 28 4 -7 -9 -7 -2 3 2 11 10 13 11 18 13 31 53 56 61 62 62 62 63
35 34 36 32 31 30 29 30 29 28 31 32 30 33 33 30 33 34 35 36 34 38 32 20 18 15 14 2 16 35 36 15 13 15 10 13 20 24 53 59 61 62 62 61 62
36 35 37 34 31 30 31 29 30 31 30 30 32 33 35 29 32 32 36 35 33 34 33 32 15 24 16 21 30 46 48 48 47 49 37 29 30 56 60 60 60 60 60 59 60
42 40 36 32 29 28 28 30 31 33 31 33 34 35 34 34 36 38 38 38 36 35 33 31 23 17 17 21 31 25 47 47 47 48 50 45 51 59 59 58 58 57 58 57 58